[[{"header":{"parameterUnit":"m.s-1","parameterCategory":1,"la1":30.2991,"la2":30.254,"lo1":-89.0895,"lo2":-89.0444,"dy":0.0017,"dx":0.0017,"nx":28,"ny":28,"refTime":"2025-01-26T03:00:00:Z","depth":0,"parameterNumber":2,"parameterNumberName":"U-component_of_WINDS"},"data":[0,0,0,0,0,0,0,0,0,0,0,0,0,0,0,0,0,0,0,0,0,0,0,0,0,0,0,0,0,0,0,0,0,0,0,0,0,0,0,0,0,0,0,0,0,0,0,0,0,0,0,0,0,0,0,0,0,0,-2.6737,-2.6738,0,-2.6782,-2.6783,-2.6783,-2.6741,-2.6739,-2.6738,-2.6736,-2.6783,-2.6786,-2.6789,0,0,0,0,0,0,0,0,0,0,0,0,0,-2.6615,-2.6618,-2.6737,-2.6738,-2.6738,-2.6782,-2.6783,-2.6784,-2.6741,-2.6739,-2.6737,-2.6735,-2.6782,-2.6786,-2.6789,0,0,0,0,0,0,0,0,0,0,0,0,0,-2.6665,-2.6618,-2.6737,-2.6723,-2.6722,-2.6782,-2.6783,-2.6784,-2.6742,-2.6739,-2.6737,-2.6734,-2.6781,-2.6785,-2.6789,-2.6867,0,0,-2.6802,-2.6804,0,0,0,0,0,0,0,0,-2.6662,-2.667,-2.6724,-2.6724,-2.6723,-2.6753,-2.6757,-2.6812,-2.6742,-2.6734,-2.6736,-2.6733,-2.6775,-2.678,-2.6794,-2.6869,-2.6871,-2.6803,-2.6805,-2.6807,-2.6808,0,0,0,0,0,0,0,-2.6659,-2.6667,-2.6755,-2.6725,-2.6724,-2.6714,-2.6718,-2.6767,-2.6769,-2.6735,-2.6732,-2.6738,-2.6775,-2.679,-2.6795,-2.6872,-2.6803,-2.6807,-2.6809,-2.6811,-2.7011,-2.7013,0,0,0,0,0,0,-2.6657,-2.6665,-2.6754,-2.6756,-2.6686,-2.6718,-2.6723,-2.6746,-2.6768,-2.6769,-2.674,-2.6735,-2.6784,-2.679,-2.6796,-2.6886,-2.6807,-2.6811,-2.6814,-2.7008,-2.7011,-2.7014,0,0,0,0,0,0,-2.6654,-2.6665,-2.6752,-2.671,-2.672,-2.6723,-2.6749,-2.6748,-2.6764,-2.6772,-2.6772,-2.6755,-2.6782,-2.679,-2.6849,-2.6887,-2.6813,-2.6817,-2.7005,-2.7009,-2.7013,-2.7068,0,0,0,0,0,0,-2.6651,-2.6665,-2.6694,-2.6711,-2.6722,-2.6804,-2.6752,-2.6751,-2.6771,-2.6766,-2.6786,-2.6787,-2.6781,-2.6843,-2.6853,-2.6892,-2.682,-2.7001,-2.7006,-2.7011,-2.7063,-2.7074,-2.7083,0,0,0,0,0,-2.6647,-2.6709,-2.6696,-2.6707,-2.6759,-2.6806,-2.6813,-2.6804,-2.6774,-2.6804,-2.6809,-2.6786,-2.6882,-2.6849,-2.6861,-2.6901,-2.6999,-2.7005,-2.7011,-2.7058,-2.7072,-2.7083,0,0,0,0,0,0,-2.6697,-2.671,-2.6696,-2.6765,-2.6785,-2.6799,-2.6836,-2.6819,-2.6847,-2.6841,-2.6829,-2.6834,-2.6896,-2.6905,-2.6868,-2.6976,-2.6935,-2.6944,-2.6968,-2.698,-2.699,-2.6986,-2.6824,0,0,0,0,0,-2.6716,-2.6752,-2.6763,-2.6823,-2.6833,-2.6833,-2.6853,-2.6844,-2.6864,-2.6872,-2.6882,-2.6902,-2.6936,-2.6959,-2.6992,-2.7065,-2.7067,-2.7098,-2.7108,-2.7116,-2.7123,-2.716,-2.7173,-2.7034,-2.7034,-2.7034,0,0,-2.6755,-2.6767,-2.6791,-2.6833,-2.6847,-2.6885,-2.684,-2.6883,-2.691,-2.6879,-2.6934,-2.6942,-2.6964,-2.7029,-2.7059,-2.7039,-2.7163,-2.7124,-2.7131,-2.7133,-2.7168,-2.7181,-2.7193,-2.7039,-2.7038,-2.7037,0,0,-2.6846,-2.686,-2.691,-2.6925,-2.6946,-2.6946,-2.6958,-2.6975,-2.6978,-2.7034,-2.701,-2.7044,-2.7104,-2.7119,-2.7135,-2.7232,-2.7212,-2.7243,-2.7294,-2.7331,-2.7341,-2.7351,-2.7383,-2.7395,-2.725,-2.7251,-2.7251,0,-2.6892,-2.6948,-2.6938,-2.6982,-2.7,-2.6973,-2.7023,-2.7038,-2.707,-2.7083,-2.706,-2.7134,-2.7147,-2.7215,-2.7238,-2.7253,-2.7265,-2.7239,-2.7341,-2.735,-2.7359,-2.7389,-2.7402,-2.7254,-2.7254,-2.7253,-2.7253,0,-2.7003,-2.7042,-2.708,-2.711,-2.7133,-2.718,-2.7176,-2.7201,-2.7191,-2.7192,-2.7248,-2.7263,-2.7297,-2.7313,-2.7304,-2.7379,-2.7366,-2.7342,-2.7301,-2.7376,-2.7404,-2.7416,-2.7259,-2.7258,-2.7257,-2.7256,0,0,-2.7125,-2.7148,-2.7162,-2.7174,-2.7196,-2.7226,-2.7272,-2.7304,-2.7324,-2.7347,-2.7384,-2.7435,-2.7413,-2.7431,-2.7424,-2.7456,-2.7529,-2.7429,-2.7429,-2.7444,-2.761,-2.7625,-2.7639,-2.7517,-2.7519,-2.7521,-2.7607,0,-2.7214,-2.7292,-2.7284,-2.7358,-2.7393,-2.7368,-2.7407,-2.7425,-2.7428,-2.7458,-2.7462,-2.7497,-2.7467,-2.7477,-2.7509,-2.7513,-2.7561,-2.7507,-2.7549,-2.7551,-2.7541,-2.7654,-2.7671,-2.7752,-2.7618,-2.762,-2.7622,0,-2.7328,-2.7354,-2.7431,-2.7446,-2.746,-2.7495,-2.7523,-2.7553,-2.7573,-2.7573,-2.7593,-2.7579,-2.7625,-2.7584,-2.7645,-2.7609,-2.7626,-2.7631,-2.7634,-2.7635,-2.7589,-2.7656,-2.7778,-2.7789,-2.7639,-2.7638,-2.7637,0,-2.7406,-2.746,-2.7512,-2.7524,-2.7544,-2.7569,-2.7578,-2.7595,-2.7614,-2.764,-2.7652,-2.7683,-2.7699,-2.7723,-2.7718,-2.7689,-2.778,-2.7739,-2.7779,-2.7779,-2.7797,-2.7796,-2.7921,-2.7813,-2.7813,-2.7813,-2.7813,0,-2.7505,-2.7552,-2.7547,-2.7579,-2.7631,-2.7622,-2.7674,-2.7681,-2.7696,-2.7728,-2.771,-2.7741,-2.7734,-2.7765,-2.7762,-2.7811,-2.782,-2.782,-2.7818,-2.782,-2.782,-2.7829,-2.7822,-2.7816,-2.7815,-2.7815,-2.7814,0,-2.7599,-2.7598,-2.7653,-2.7667,-2.7671,-2.7709,-2.7721,-2.7751,-2.7752,-2.7794,-2.7803,-2.7806,-2.7841,-2.7839,-2.7879,-2.7877,-2.7938,-2.7931,-2.7931,-2.7928,-2.7967,-2.7963,-2.81,-2.8117,-2.8002,-2.8003,-2.8004,0,-2.7661,-2.7696,-2.7714,-2.7733,-2.7744,-2.7777,-2.7797,-2.779,-2.781,-2.7835,-2.7861,-2.7895,-2.7921,-2.7978,-2.7984,-2.8014,-2.8006,-2.8052,-2.801,-2.801,-2.8003,-2.8,-2.8002,-2.8059,-2.8061,-2.8062,-2.8063,0,-2.7769,-2.7766,-2.7795,-2.7823,-2.7846,-2.7869,-2.7889,-2.7906,-2.7901,-2.7926,-2.7961,-2.7981,-2.8022,-2.8054,-2.8083,-2.8093,-2.8076,-2.8076,-2.8087,-2.8087,-2.8085,-2.8084,-2.795,-2.8072,-2.8071,-2.8071,-2.807,-2.807,-2.7847,-2.7876,-2.7893,-2.7925,-2.7939,-2.7958,-2.7986,-2.7991,-2.802,-2.8052,-2.8046,-2.8085,-2.8103,-2.814,-2.8152,-2.8182,-2.8166,-2.8182,-2.8185,-2.8188,-2.8191,-2.8082,-2.8188,-2.8188,-2.8188,-2.8187,-2.8187,0,-2.7952,-2.7961,-2.799,-2.8018,-2.8043,-2.8027,-2.8048,-2.8069,-2.8104,-2.8122,-2.8147,-2.8187,-2.8219,-2.8227,-2.8257,-2.828,-2.8273,-2.8288,-2.8284,-2.8286,-2.8206,-2.8192,-2.8292,-2.8292,-2.8292,-2.8292,-2.8292,-2.8292,-2.8009,-2.8057,-2.8057,-2.8112,-2.8121,-2.8158,-2.8171,-2.8189,-2.8202,-2.8247,-2.8273,-2.8278,-2.8292,-2.8323,-2.8351,-2.8352,-2.8363,-2.838,-2.8379,-2.8303,-2.8292,-2.8282,-2.8269,-2.8384,-2.8384,-2.8456,-2.8457,-2.8457]},{"header":{"parameterUnit":"m.s-1","parameterCategory":1,"la1":30.2991,"la2":30.254,"lo1":-89.0895,"lo2":-89.0444,"dy":0.0017,"dx":0.0017,"nx":28,"ny":28,"refTime":"2025-01-26T03:00:00:Z","depth":0,"parameterNumber":3,"parameterNumberName":"V-component_of_WINDS"},"data":[0,0,0,0,0,0,0,0,0,0,0,0,0,0,0,0,0,0,0,0,0,0,0,0,0,0,0,0,0,0,0,0,0,0,0,0,0,0,0,0,0,0,0,0,0,0,0,0,0,0,0,0,0,0,0,0,0,0,1.272,1.2721,0,1.2816,1.2817,1.2818,1.2782,1.278,1.2778,1.2776,1.2876,1.2881,1.2886,0,0,0,0,0,0,0,0,0,0,0,0,0,1.251,1.2514,1.272,1.2721,1.2723,1.2816,1.2817,1.2818,1.2783,1.278,1.2778,1.2775,1.2875,1.288,1.2886,0,0,0,0,0,0,0,0,0,0,0,0,0,1.2603,1.2516,1.272,1.2716,1.2717,1.2815,1.2817,1.2819,1.2783,1.278,1.2777,1.2774,1.2873,1.288,1.2887,1.2996,0,0,1.2908,1.2912,0,0,0,0,0,0,0,0,1.2598,1.2611,1.2715,1.2716,1.2717,1.2784,1.278,1.2878,1.2784,1.2758,1.2776,1.2772,1.2848,1.2857,1.2883,1.3001,1.3005,1.2909,1.2913,1.2916,1.2918,0,0,0,0,0,0,0,1.2592,1.2607,1.2758,1.2717,1.2718,1.2711,1.272,1.2798,1.2821,1.276,1.2758,1.2769,1.2848,1.2876,1.2885,1.3007,1.2909,1.2915,1.292,1.2922,1.3222,1.3225,0,0,0,0,0,0,1.2584,1.2602,1.2755,1.2761,1.2648,1.2717,1.2728,1.2766,1.282,1.2825,1.2772,1.2767,1.2865,1.2876,1.2888,1.3022,1.2916,1.2923,1.2927,1.3218,1.3223,1.3227,0,0,0,0,0,0,1.258,1.2598,1.2751,1.2681,1.27,1.2724,1.2767,1.2769,1.2797,1.2829,1.2833,1.2796,1.2863,1.2878,1.297,1.3024,1.2926,1.2933,1.3214,1.322,1.3225,1.3288,0,0,0,0,0,0,1.2574,1.2597,1.2638,1.2682,1.2703,1.2831,1.277,1.2774,1.2809,1.2804,1.2852,1.2857,1.2862,1.296,1.2977,1.3032,1.2938,1.3209,1.3216,1.3223,1.3281,1.3295,1.3307,0,0,0,0,0,1.2567,1.2652,1.264,1.2659,1.2755,1.2834,1.2846,1.2849,1.2813,1.2856,1.2876,1.2855,1.3015,1.2969,1.2989,1.3047,1.3206,1.3214,1.3222,1.3276,1.3293,1.3307,0,0,0,0,0,0,1.2614,1.2658,1.2645,1.2747,1.2787,1.2828,1.2881,1.2867,1.2919,1.2912,1.2914,1.2925,1.3021,1.3042,1.299,1.3157,1.3105,1.3118,1.3139,1.3155,1.3168,1.3162,1.2944,0,0,0,0,0,1.2636,1.2696,1.2731,1.2817,1.2838,1.2856,1.289,1.2889,1.2931,1.2949,1.2976,1.3018,1.3078,1.3118,1.3174,1.3284,1.3295,1.3334,1.3346,1.3357,1.3368,1.3431,1.3449,1.3254,1.3254,1.3254,0,0,1.2683,1.2714,1.2752,1.2828,1.2859,1.2922,1.2871,1.2939,1.2986,1.2959,1.3048,1.307,1.3117,1.3219,1.3265,1.324,1.3425,1.3368,1.3376,1.3382,1.3441,1.346,1.3476,1.326,1.3259,1.3258,0,0,1.2801,1.2829,1.2906,1.2938,1.2985,1.2997,1.3015,1.3059,1.3072,1.3161,1.3143,1.3199,1.3302,1.3337,1.3369,1.3501,1.3485,1.352,1.3588,1.3648,1.3664,1.3677,1.3727,1.3745,1.3531,1.3531,1.3531,0,1.2853,1.2947,1.2947,1.3017,1.3052,1.303,1.3109,1.314,1.3204,1.3229,1.32,1.333,1.336,1.3471,1.3504,1.3529,1.3552,1.3515,1.3661,1.3675,1.3688,1.3735,1.3754,1.3535,1.3534,1.3534,1.3534,0,1.301,1.3075,1.3131,1.3194,1.3235,1.3309,1.3322,1.3363,1.3359,1.3374,1.3466,1.3502,1.3567,1.3592,1.3588,1.3704,1.3687,1.366,1.3608,1.371,1.3755,1.3773,1.3541,1.3539,1.3538,1.3537,0,0,1.3161,1.3223,1.3244,1.3273,1.3324,1.3375,1.3449,1.3512,1.3549,1.3594,1.3657,1.3745,1.3721,1.3756,1.3756,1.3809,1.3915,1.3775,1.3777,1.3802,1.4047,1.407,1.4091,1.3904,1.3907,1.391,1.4044,0,1.3285,1.3414,1.3417,1.3536,1.3597,1.3577,1.3642,1.3681,1.3698,1.3753,1.3771,1.3835,1.3796,1.3818,1.3869,1.3891,1.3965,1.3881,1.3965,1.3968,1.3956,1.4114,1.4137,1.4262,1.4062,1.4064,1.4067,0,1.3446,1.3497,1.3622,1.3666,1.3692,1.375,1.3809,1.3862,1.3907,1.3915,1.3956,1.3948,1.4026,1.397,1.4078,1.4022,1.4056,1.4072,1.4077,1.4087,1.4025,1.413,1.4301,1.4321,1.4094,1.4092,1.409,0,1.3547,1.3646,1.3734,1.3759,1.3812,1.3854,1.3878,1.392,1.3958,1.401,1.4035,1.4095,1.4129,1.4176,1.4186,1.4144,1.4295,1.424,1.4306,1.4306,1.434,1.4339,1.4522,1.4359,1.4358,1.4358,1.4357,0,1.3686,1.3764,1.3781,1.3835,1.3923,1.3926,1.4013,1.4034,1.4071,1.4131,1.4117,1.4173,1.4182,1.4241,1.4249,1.4338,1.4353,1.4363,1.4365,1.4366,1.4365,1.439,1.4383,1.4363,1.4362,1.4361,1.436,0,1.3814,1.3828,1.3923,1.3966,1.3979,1.4042,1.4079,1.4132,1.4147,1.4223,1.4241,1.4265,1.4333,1.4347,1.4429,1.4434,1.4542,1.4533,1.4527,1.4527,1.4593,1.4588,1.4801,1.4831,1.4646,1.4647,1.4649,0,1.3903,1.3963,1.4012,1.4051,1.4077,1.414,1.4179,1.4184,1.4226,1.4282,1.433,1.4397,1.4451,1.4562,1.4588,1.4651,1.4646,1.4716,1.4655,1.4655,1.465,1.4647,1.4655,1.4728,1.473,1.4732,1.4733,0,1.4061,1.4065,1.4121,1.4181,1.4228,1.4276,1.4321,1.4353,1.4365,1.4413,1.4483,1.4525,1.4609,1.4677,1.474,1.4766,1.4753,1.4752,1.4771,1.4774,1.4769,1.4776,1.4562,1.4748,1.4746,1.4745,1.4744,1.4744,1.4174,1.4227,1.4271,1.4335,1.4369,1.4412,1.4465,1.4486,1.4545,1.4613,1.4613,1.469,1.4735,1.4819,1.4849,1.4911,1.4889,1.4916,1.4923,1.4931,1.4938,1.4757,1.4922,1.4921,1.4921,1.4921,1.492,0,1.4333,1.436,1.4419,1.4483,1.4534,1.4515,1.4565,1.4609,1.4677,1.472,1.4774,1.4856,1.4922,1.4953,1.5019,1.5062,1.5058,1.508,1.5078,1.5085,1.4952,1.4931,1.5082,1.5082,1.5082,1.5082,1.5082,1.5082,1.4422,1.4512,1.4522,1.4629,1.4656,1.4731,1.4761,1.4802,1.4836,1.4928,1.4983,1.5002,1.5041,1.511,1.517,1.5178,1.5204,1.5229,1.5234,1.511,1.5094,1.5078,1.5058,1.5234,1.5234,1.5361,1.5363,1.5364]}]]